Dumas, TX

6:28 AM CST on February 19, 2017 (GMT -0600)
Moore County

Weather History for KDUX - October, 2012

Change the Weather History Date:

Sunday, October 7, 2012

  Actual Average (KDHT) Record (KDHT)
Temperature  
Mean Temperature 39 °F -  
Max Temperature 46 °F 72 °F 90 °F (1979)
Min Temperature 32 °F 43 °F 30 °F (1952)
Degree Days  
Heating Degree Days 26    
Moisture  
Dew Point 30 °F    
Average Humidity 75    
Maximum Humidity 93    
Minimum Humidity 53    
Precipitation  
Precipitation 0.00 in - - ()
Sea Level Pressure  
Sea Level Pressure 30.24 in    
Wind  
Wind Speed 7 mph (SSE)    
Max Wind Speed 14 mph    
Max Gust Speed 17 mph    
Visibility 10 miles    
Events      
Averages and records for this station are not official NWS values.
T = Trace of Precipitation, MM = Missing Value Source: NWS Daily Summary

Daily Weather History Graph

Daily Weather History Graph

Search for Another Location

Airport or City:

Trip Planner

Search our weather history database for the weather conditions in past years. The results will help you decide how hot, cold, wet, or windy it might be!

Date:

Astronomy

Oct. 07, 2012 Rise Set
Actual Time 7:48 AM CDT 7:22 PM CDT
Civil Twilight 7:22 AM CDT 7:48 PM CDT
Nautical Twilight 6:53 AM CDT 8:17 PM CDT
Astronomical Twilight 6:23 AM CDT 8:47 PM CDT
Moon No Moon Rise 2:19 PM CDT (10/7)
Length of Visible Light 12h 25m
Length of Day
11h 34m
Waning Gibbous, 56% of the Moon is Illuminated
Oct 7
Waning Gibbous
Oct 8
Last Quarter
Oct 15
New
Oct 21
First Quarter
Oct 29
Full

Hourly Weather History & Observations

Time (CDT) Temp. Windchill Dew Point Humidity Pressure Visibility Wind Dir Wind Speed Gust Speed Precip Events Conditions
12:15 AM 37.4 °F 32.8 °F 30.2 °F 75% 30.32 in 10.0 mi East 5.8 mph - N/A   Overcast
12:35 AM 37.4 °F 31.4 °F 30.2 °F 75% 30.31 in 10.0 mi East 8.1 mph - N/A   Overcast
12:55 AM 37.4 °F 32.1 °F 30.2 °F 75% 30.32 in 10.0 mi East 6.9 mph - N/A   Overcast
1:15 AM 37.4 °F 32.1 °F 30.2 °F 75% 30.32 in 10.0 mi East 6.9 mph - N/A   Overcast
1:35 AM 35.6 °F 29.2 °F 30.2 °F 81% 30.31 in 10.0 mi East 8.1 mph - N/A   Overcast
1:55 AM 35.6 °F 28.6 °F 30.2 °F 81% 30.31 in 10.0 mi ESE 9.2 mph - N/A   Overcast
2:15 AM 35.6 °F 28.6 °F 30.2 °F 81% 30.31 in 10.0 mi SE 9.2 mph - N/A   Mostly Cloudy
2:35 AM 35.6 °F 30.7 °F 30.2 °F 81% 30.31 in 10.0 mi SE 5.8 mph - N/A   Scattered Clouds
2:55 AM 35.6 °F 30.7 °F 30.2 °F 81% 30.31 in 10.0 mi SE 5.8 mph - N/A   Scattered Clouds
3:15 AM 35.6 °F 31.7 °F 30.2 °F 81% 30.30 in 10.0 mi SSE 4.6 mph - N/A   Mostly Cloudy
3:35 AM 35.6 °F 32.8 °F 30.2 °F 81% 30.29 in 10.0 mi SSE 3.5 mph - N/A   Scattered Clouds
3:55 AM 35.6 °F 31.7 °F 32.0 °F 87% 30.30 in 10.0 mi SSE 4.6 mph - N/A   Clear
4:15 AM 35.6 °F 30.7 °F 32.0 °F 87% 30.28 in 10.0 mi SSE 5.8 mph - N/A   Clear
4:35 AM 33.8 °F 30.8 °F 32.0 °F 93% 30.27 in 10.0 mi South 3.5 mph - N/A   Clear
4:55 AM 33.8 °F 29.6 °F 30.2 °F 87% 30.27 in 10.0 mi South 4.6 mph - N/A   Clear
5:15 AM 32.0 °F 27.5 °F 30.2 °F 93% 30.28 in 10.0 mi ESE 4.6 mph - N/A   Clear
5:35 AM 33.8 °F - 30.2 °F 87% 30.29 in 10.0 mi Calm Calm - N/A   Scattered Clouds
5:55 AM 32.0 °F 27.5 °F 30.2 °F 93% 30.28 in 10.0 mi SE 4.6 mph - N/A   Overcast
6:15 AM 33.8 °F 28.6 °F 32.0 °F 93% 30.27 in 10.0 mi ESE 5.8 mph - N/A   Overcast
6:55 AM 33.8 °F 27.7 °F 32.0 °F 93% 30.27 in 10.0 mi ESE 6.9 mph - N/A   Mostly Cloudy
7:15 AM 33.8 °F 28.6 °F 32.0 °F 93% 30.27 in 10.0 mi SE 5.8 mph - N/A   Scattered Clouds
7:35 AM 33.8 °F 28.6 °F 32.0 °F 93% 30.26 in 10.0 mi SE 5.8 mph - N/A   Mostly Cloudy
7:55 AM 33.8 °F 27.7 °F 32.0 °F 93% 30.26 in 10.0 mi SE 6.9 mph - N/A   Mostly Cloudy
8:15 AM 33.8 °F 28.6 °F 32.0 °F 93% 30.27 in 10.0 mi ESE 5.8 mph - N/A   Mostly Cloudy
8:55 AM 35.6 °F 29.9 °F 32.0 °F 87% 30.28 in 10.0 mi SE 6.9 mph - N/A   Scattered Clouds
9:15 AM 35.6 °F 29.9 °F 32.0 °F 87% 30.27 in 10.0 mi SE 6.9 mph - N/A   Scattered Clouds
9:35 AM 35.6 °F 30.7 °F 32.0 °F 87% 30.27 in 10.0 mi ESE 5.8 mph - N/A   Clear
9:55 AM 35.6 °F 29.9 °F 32.0 °F 87% 30.27 in 10.0 mi ESE 6.9 mph - N/A   Scattered Clouds
10:15 AM 37.4 °F 33.8 °F 32.0 °F 81% 30.29 in 10.0 mi SE 4.6 mph - N/A   Mostly Cloudy
10:35 AM 37.4 °F 32.8 °F 32.0 °F 81% 30.29 in 10.0 mi SSE 5.8 mph - N/A   Overcast
10:55 AM 37.4 °F 32.8 °F 32.0 °F 81% 30.28 in 10.0 mi South 5.8 mph - N/A   Overcast
11:15 AM 39.2 °F 35.9 °F 30.2 °F 70% 30.27 in 10.0 mi South 4.6 mph - N/A   Mostly Cloudy
11:35 AM 41.0 °F 35.8 °F 30.2 °F 65% 30.27 in 10.0 mi South 8.1 mph - N/A   Mostly Cloudy
11:55 AM 41.0 °F 35.8 °F 30.2 °F 65% 30.27 in 10.0 mi South 8.1 mph - N/A   Overcast
12:15 PM 41.0 °F 35.2 °F 30.2 °F 65% 30.27 in 10.0 mi SSW 9.2 mph - N/A   Overcast
12:35 PM 41.0 °F 37.1 °F 30.2 °F 65% 30.27 in 10.0 mi South 5.8 mph - N/A   Overcast
12:55 PM 41.0 °F 35.2 °F 30.2 °F 65% 30.26 in 10.0 mi South 9.2 mph - N/A   Overcast
1:15 PM 41.0 °F 35.2 °F 28.4 °F 61% 30.25 in 10.0 mi SSW 9.2 mph - N/A   Mostly Cloudy
1:35 PM 42.8 °F 36.2 °F 30.2 °F 61% 30.24 in 10.0 mi South 12.7 mph 16.1 mph N/A   Mostly Cloudy
1:55 PM 42.8 °F 39.3 °F 30.2 °F 61% 30.23 in 10.0 mi South 5.8 mph - N/A   Scattered Clouds
2:15 PM 42.8 °F 38.0 °F 30.2 °F 61% 30.22 in 10.0 mi SSW 8.1 mph - N/A   Scattered Clouds
2:35 PM 42.8 °F 37.5 °F 30.2 °F 61% 30.22 in 10.0 mi South 9.2 mph - N/A   Mostly Cloudy
2:55 PM 42.8 °F 38.6 °F 30.2 °F 61% 30.21 in 10.0 mi SSW 6.9 mph - N/A   Mostly Cloudy
3:15 PM 42.8 °F 38.0 °F 30.2 °F 61% 30.20 in 10.0 mi SSW 8.1 mph - N/A   Mostly Cloudy
3:35 PM 42.8 °F 37.5 °F 30.2 °F 61% 30.20 in 10.0 mi SSW 9.2 mph - N/A   Mostly Cloudy
3:55 PM 42.8 °F 37.0 °F 30.2 °F 61% 30.20 in 10.0 mi South 10.4 mph - N/A   Mostly Cloudy
4:15 PM 44.6 °F 39.2 °F 30.2 °F 57% 30.18 in 10.0 mi SSW 10.4 mph - N/A   Mostly Cloudy
4:35 PM 44.6 °F 38.8 °F 30.2 °F 57% 30.18 in 10.0 mi SSW 11.5 mph - N/A   Mostly Cloudy
4:55 PM 46.4 °F 40.4 °F 30.2 °F 53% 30.17 in 10.0 mi SSW 13.8 mph 17.3 mph N/A   Scattered Clouds
5:15 PM 46.4 °F 41.1 °F 30.2 °F 53% 30.17 in 10.0 mi SW 11.5 mph 17.3 mph N/A   Clear
5:35 PM 46.4 °F 41.1 °F 30.2 °F 53% 30.17 in 10.0 mi SW 11.5 mph - N/A   Clear
5:55 PM 46.4 °F 41.5 °F 30.2 °F 53% 30.16 in 10.0 mi SSW 10.4 mph - N/A   Clear
6:15 PM 46.4 °F 41.5 °F 30.2 °F 53% 30.15 in 10.0 mi SSW 10.4 mph - N/A   Clear
6:35 PM 44.6 °F 39.7 °F 28.4 °F 53% 30.15 in 10.0 mi SSW 9.2 mph - N/A   Clear
6:55 PM 44.6 °F 39.2 °F 28.4 °F 53% 30.15 in 10.0 mi SSW 10.4 mph - N/A   Clear
7:15 PM 42.8 °F 39.3 °F 28.4 °F 57% 30.15 in 10.0 mi South 5.8 mph - N/A   Clear
7:55 PM 35.6 °F 29.2 °F 26.6 °F 70% 30.15 in 10.0 mi South 8.1 mph - N/A   Clear
8:15 PM 35.6 °F 29.2 °F 26.6 °F 70% 30.15 in 10.0 mi South 8.1 mph - N/A   Clear
8:35 PM 33.8 °F 27.0 °F 26.6 °F 75% 30.16 in 10.0 mi South 8.1 mph - N/A   Clear
8:55 PM 33.8 °F 26.4 °F 26.6 °F 75% 30.16 in 10.0 mi South 9.2 mph - N/A   Clear
9:15 PM 33.8 °F 27.0 °F 26.6 °F 75% 30.16 in 10.0 mi South 8.1 mph - N/A   Clear
9:35 PM 33.8 °F 27.0 °F 26.6 °F 75% 30.16 in 10.0 mi South 8.1 mph - N/A   Clear
9:55 PM 32.0 °F 24.2 °F 26.6 °F 80% 30.17 in 10.0 mi South 9.2 mph - N/A   Clear
10:15 PM 32.0 °F 24.8 °F 26.6 °F 80% 30.17 in 10.0 mi South 8.1 mph - N/A   Clear
10:35 PM 32.0 °F 24.2 °F 26.6 °F 80% 30.17 in 10.0 mi South 9.2 mph - N/A   Clear
10:55 PM 33.8 °F 26.4 °F 28.4 °F 81% 30.17 in 10.0 mi South 9.2 mph - N/A   Clear
11:15 PM 32.0 °F 24.2 °F 28.4 °F 87% 30.17 in 10.0 mi South 9.2 mph - N/A   Clear
11:35 PM 32.0 °F 24.8 °F 28.4 °F 87% 30.17 in 10.0 mi South 8.1 mph - N/A   Clear
11:55 PM 32.0 °F 24.8 °F 30.2 °F 93% 30.17 in 10.0 mi South 8.1 mph - N/A   Clear